Flag for Reunion (French) Weather past 2 weeks in Saint-Denis, Reunion (French)

Now
68 °F

Partly cloudy.


Feels Like: 68 °F
Forecast: 66 / 75 °F
Wind: 12 mph from Southeast

Location: Saint-Denis / Gillot

Current Time: Aug 4, 2015 at 10:15:47 PM

Latest Report: Aug 4, 2015 at 9:30 PM


Visibility: N/A

Pressure: 30.21 "Hg

Humidity: 83%

Dew point: 63 °F

Location of Saint-DenisLocation

Historic Weather in Saint-Denis — Graph

°F

Saint-Denis temperature yesterday

Maximum temperature yesterday: 73 °F (at 12:30 PM)
Minimum temperature yesterday: 66 °F (at 2:00 AM)
Average temperature yesterday: 70 °F

Past Weeks' High & Low Weather Summary

 TemperatureHumidityPressure
High82 °F (Jul 28, 1:00 PM)83% (Aug 4, 9:00 AM)30.27 "Hg (Aug 4, 9:00 AM)
Low64 °F (Jul 23, 5:30 AM)39% (Jul 26, 12:00 PM)30.01 "Hg (Aug 1, 2:00 PM)
Average72 °F63%30.14 "Hg
* Reported Jul 20 9:00 PM — Aug 4 9:00 PM, Saint-Denis, Weather by CustomWeather, © 2015

Note: Actual official high and low records may vary slightly from our data, if they occured in-between our weather recording intervals... More about our weather records

Advertising

Saint-Denis weather history for previous 24 hours

 ConditionsComfort  
Time TempWeatherWind HumidityBarometerVisibility
9:00 PM
Tue, Aug 4
68 °FLight rain. Overcast.10 mph83%30.18 "HgN/A
8:30 PM68 °FLight rain. Partly cloudy.15 mph83%30.18 "HgN/A
8:00 PM70 °FPartly cloudy.16 mph78%30.18 "HgN/A
7:30 PM70 °FMild.10 mph73%30.18 "HgN/A
7:00 PM68 °FMostly cloudy.12 mph78%30.15 "HgN/A
6:30 PM68 °FPassing clouds.13 mph78%30.15 "HgN/A
6:00 PM68 °FOvercast.22 mph78%30.18 "HgN/A
5:30 PM66 °FLight rain. Mostly cloudy.13 mph83%30.15 "Hg4 mi
5:00 PM66 °FLight rain. Mostly cloudy.16 mph83%30.15 "Hg4 mi
4:30 PM66 °FRain. Overcast.20 mph83%30.18 "Hg4 mi
4:05 PM68 °FLight rain. Partly sunny.14 mph78%30.18 "Hg4 mi
3:30 PM70 °FPartly sunny.12 mph73%30.15 "Hg4 mi
3:00 PM70 °FPartly sunny.13 mph73%30.15 "Hg4 mi
2:30 PM70 °FPartly sunny.16 mph73%30.15 "Hg4 mi
2:00 PM68 °FLight rain. Partly sunny.17 mph78%30.18 "Hg4 mi
1:30 PM72 °FLight rain. Partly sunny.22 mph69%30.18 "HgN/A
1:00 PM70 °FPartly sunny.17 mph78%30.18 "HgN/A
12:30 PM72 °FPartly sunny.22 mph69%30.18 "HgN/A
12:00 PM72 °FPartly sunny.23 mph65%30.18 "HgN/A
11:30 AM72 °FPartly sunny.18 mph69%30.18 "HgN/A
11:00 AM72 °FPartly sunny.18 mph69%30.18 "HgN/A
10:30 AM72 °FPartly sunny.17 mph69%30.21 "HgN/A
10:00 AM72 °FPartly sunny.13 mph69%30.21 "Hg6 mi
9:30 AM70 °FOvercast.14 mph73%30.21 "Hg6 mi
9:00 AM66 °FOvercast.6 mph83%30.21 "Hg5 mi
8:30 AM66 °FLight rain. Overcast.7 mph78%30.21 "Hg4 mi
8:00 AM68 °FPartly sunny.10 mph73%30.21 "Hg4 mi
7:30 AM70 °FPartly sunny.7 mph73%30.21 "Hg4 mi
7:00 AM68 °FLight rain. Partly sunny.20 mph73%30.18 "Hg4 mi
6:30 AM70 °FPartly sunny.20 mph69%30.15 "HgN/A
6:00 AM70 °FSunny.20 mph69%30.12 "Hg10 mi
5:30 AM70 °FClear.21 mph69%30.12 "HgN/A
5:00 AM70 °FOvercast.18 mph69%30.15 "HgN/A
4:30 AM70 °FOvercast.21 mph69%30.15 "HgN/A
4:00 AM70 °FMild.14 mph64%30.15 "HgN/A
3:30 AM70 °FClear.16 mph64%30.15 "HgN/A
3:00 AM70 °FPartly cloudy.12 mph69%30.18 "HgN/A
2:30 AM70 °FMostly cloudy.10 mph64%30.18 "HgN/A
2:00 AM70 °FOvercast.9 mph69%30.21 "HgN/A
1:30 AM70 °FClear.17 mph60%30.18 "HgN/A
1:00 AM70 °FClear.13 mph64%30.18 "HgN/A
12:30 AM70 °FClear.18 mph64%30.18 "HgN/A
12:00 AM70 °FClear.16 mph64%30.18 "HgN/A
11:30 PM
Mon, Aug 3
68 °FClear.9 mph64%30.18 "HgN/A
11:00 PM70 °FClear.8 mph64%30.21 "HgN/A
10:30 PM70 °FMostly cloudy.10 mph64%30.21 "HgN/A
10:00 PM70 °FMostly cloudy.8 mph64%30.24 "HgN/A
Weather by CustomWeather, © 2015

See weather overviewHow to use our weather pages